Flag for U.S.A. Weather past 2 weeks in Springfield, Illinois, U.S.A.

Now
22 °F

Light snow. Ice fog.


Feels Like: 14 °F
Forecast: 21 / 30 °F
Wind: 6 mph from Southeast

Location: Capital Airport

Current Time: Feb 28, 2015 at 9:13:13 PM

Latest Report: Feb 28, 2015 at 9:02 PM


Visibility: 1 mi

Pressure: 30.47 "Hg

Humidity: 89%

Dew point: 19 °F

Location of SpringfieldLocation

Historic Weather in Springfield — Graph

°F

Springfield temperature yesterday

Maximum temperature yesterday: 12 °F (at 2:52 PM)
Minimum temperature yesterday: -11 °F (at 5:52 AM)
Average temperature yesterday: 3 °F

Past Weeks' High & Low Weather Summary

 TemperatureHumidityPressure
High37 °F (Feb 21, 1:52 PM)89% (Feb 21, 12:52 AM)30.81 "Hg (Feb 21, 12:52 AM)
Low-11 °F (Feb 27, 5:52 AM)29% (Feb 14, 10:52 AM)29.89 "Hg (Feb 24, 2:52 PM)
Average16 °F64%30.29 "Hg
* Reported Feb 13 7:52 PM — Feb 28 7:52 PM, Springfield, Weather by CustomWeather, © 2015

Note: Actual official high and low records may vary slightly from our data, if they occured in-between our weather recording intervals... More about our weather records

Advertising

Springfield weather history for previous 24 hours

 ConditionsComfort  
Time TempWeatherWind HumidityBarometerVisibility
7:52 PM
Sat, Feb 28
22 °FLight snow. Ice fog.7 mph89%30.52 "Hg1 mi
6:52 PM22 °FLight snow. Ice fog.10 mph85%30.54 "Hg1 mi
5:52 PM22 °FLight snow. Ice fog.10 mph85%30.53 "Hg1 mi
4:52 PM23 °FLight snow. Ice fog.7 mph81%30.54 "Hg1 mi
4:03 PM23 °FLight snow. Mostly cloudy.8 mph78%30.52 "Hg1 mi
3:52 PM23 °FLight snow. Mostly cloudy.9 mph74%30.55 "Hg2 mi
2:54 PM24 °FLight snow. Mostly cloudy.9 mph62%30.53 "Hg4 mi
1:52 PM25 °FScattered clouds.10 mph53%30.56 "Hg10 mi
12:52 PM25 °FSunny.10 mph53%30.61 "Hg10 mi
11:52 AM24 °FSunny.9 mph52%30.65 "Hg10 mi
10:52 AM21 °FSunny.7 mph57%30.67 "Hg10 mi
9:52 AM18 °FPassing clouds.7 mph57%30.69 "Hg10 mi
8:52 AM14 °FOvercast.6 mph64%30.72 "Hg10 mi
7:52 AM10 °FMostly cloudy.6 mph69%30.71 "Hg10 mi
6:52 AM9 °FOvercast.5 mph66%30.71 "Hg10 mi
5:52 AM8 °FPassing clouds.5 mph69%30.71 "Hg10 mi
4:52 AM8 °FOvercast.6 mph66%30.71 "Hg10 mi
3:52 AM9 °FOvercast.6 mph64%30.69 "Hg10 mi
2:52 AM7 °FOvercast.6 mph73%30.69 "Hg10 mi
1:52 AM7 °FPassing clouds.3 mph73%30.70 "Hg10 mi
12:52 AM5 °FPassing clouds.3 mph76%30.70 "Hg6 mi
11:52 PM
Fri, Feb 27
5 °FClear.No wind80%30.71 "Hg10 mi
10:52 PM4 °FPassing clouds.No wind73%30.72 "Hg10 mi
9:52 PM5 °FPassing clouds.No wind66%30.73 "Hg10 mi
Weather by CustomWeather, © 2015

See weather overviewHow to use our weather pages